Probability
0 0 0 0 0 0 0 0 0 0 0 0 0 0 0 0 0 0 0 0 0 0 0 0 0 0 0 0 0 0 0 0 0 0 0 0 0 0 0 0 0 0 0 0 0 0 0 0 0
0 0 0 0 0 0 0 0 0 0 0 0 0 0 0 0 0 0 0 0 0 0 0 0 0 0 0 0 0 0 0 0 0 0 0 0 0 0 0 0 0 0 0 0 0 0 0 0 0
0 0 0 0 0 0 0 0 0 0 0 0 0 0 0 0 0 0 0 0 0 0 0 0 0 0 0 0 0 0 0 0 0 0 0 0 0 0 0 0 0 0 0 0 0 0 0 0 0
0 0 0 0 0 0 0 0 0 0 0 0 0 0 0 0 0 0 0 0 0 0 0 0 3 3 0 0 0 0 0 0 0 0 0 0 0 0 0 0 0 0 0 0 0 0 0 0 0
0 0 0 0 0 0 0 0 0 0 0 0 0 0 0 0 0 0 0 0 0 0 0 0 3 3 0 0 0 0 0 0 0 0 0 0 0 0 0 0 0 0 0 0 0 0 0 0 0
0 0 0 0 0 0 0 0 0 0 0 0 0 0 0 0 0 0 0 0 0 0 0 0 3 3 0 0 0 0 0 0 0 0 0 0 0 0 0 0 0 0 0 0 0 0 0 0 0
0 0 0 0 0 0 0 0 0 0 0 0 0 0 0 0 0 0 0 0 0 0 0 0 0 0 0 0 0 0 0 0 0 0 0 0 0 0 0 0 0 0 0 0 0 0 0 0 0
0 0 0 0 0 0 0 0 0 0 0 0 0 0 0 0 0 0 0 0 0 0 0 0 0 0 0 0 0 0 0 0 0 0 0 0 0 0 0 0 0 0 0 0 0 0 0 0 0
0 0 0 0 0 0 0 0 0 0 0 0 0 0 0 0 0 0 0 0 0 0 0 0 0 0 0 0 0 0 0 0 0 0 0 0 0 0 0 0 0 0 0 0 0 0 0 0 0
0 0 0 0 0 0 0 0 0 0 0 0 0 0 0 0 0 0 0 0 0 0 0 0 0 0 0 0 0 0 0 0 0 0 0 0 0 0 0 0 0 0 0 0 0 0 0 0 0
0 0 0 0 0 0 0 0 0 0 0 0 0 0 0 0 0 0 0 0 0 0 0 0 0 0 0 0 0 0 0 0 0 0 0 0 0 0 0 0 0 0 0 0 0 0 0 0 0
0 0 0 0 0 0 0 0 0 0 0 0 0 0 0 0 0 0 0 0 0 0 0 0 0 0 0 0 0 0 0 0 0 0 0 0 0 0 0 0 0 0 0 0 0 0 0 0 0
0 0 0 0 0 0 0 0 0 0 0 0 0 0 0 0 0 0 0 0 0 0 0 0 0 0 0 0 0 0 0 0 0 0 0 0 0 0 0 0 0 0 0 0 0 0 0 0 0
0 0 0 0 0 0 0 0 0 0 0 0 0 0 0 0 0 0 0 0 0 0 0 0 0 0 0 0 0 0 0 0 0 0 0 0 0 0 0 0 0 0 0 0 0 0 0 0 0
0 0 0 0 0 0 0 0 0 0 0 0 0 0 0 0 0 0 0 0 0 0 0 0 0 0 0 0 0 0 0 0 0 0 0 0 0 0 0 0 0 0 0 0 0 0 0 0 0
0 0 0 0 0 0 0 0 0 0 0 0 0 0 0 0 0 0 0 0 0 0 0 0 0 0 0 0 0 0 0 0 0 0 0 0 0 0 0 0 0 0 0 0 0 0 0 0 0
0 0 0 0 0 0 0 0 0 0 0 0 0 0 0 0 0 0 0 0 0 0 0 0 0 0 0 0 0 0 0 0 0 0 0 0 0 0 0 0 0 0 0 0 0 0 0 0 0
0 0 0 0 0 0 0 0 0 0 0 0 0 0 0 0 0 0 0 0 0 0 0 0 0 0 0 0 0 0 0 0 0 0 0 0 0 0 0 0 0 0 0 0 0 0 0 0 0
0 0 0 0 0 0 0 0 0 0 0 0 0 0 0 0 0 0 0 0 0 0 0 0 0 0 0 0 0 0 0 0 0 0 0 0 0 0 0 0 0 0 0 0 0 0 0 0 0
0 0 0 0 0 0 0 0 0 0 0 0 0 0 0 0 0 0 0 0 0 0 0 0 0 0 0 0 0 0 0 0 0 0 0 0 0 0 0 0 0 0 0 0 0 0 0 0 0
0 0 0 0 0 0 0 0 0 0 0 0 0 0 0 0 0 0 0 0 0 0 0 0 0 0 0 0 0 0 0 0 0 0 0 0 0 0 0 0 0 0 0 0 0 0 0 0 0
0 0 0 0 0 0 0 0 0 0 0 0 0 0 0 0 0 0 0 0 0 0 0 0 0 0 0 0 0 0 0 0 0 0 0 0 0 0 0 0 0 0 0 0 0 0 0 0 0
0 0 0 0 0 0 0 0 0 0 0 0 0 0 0 0 0 0 0 0 0 0 0 0 0 0 0 0 0 0 0 0 0 0 0 0 0 0 0 0 0 0 0 0 0 0 0 0 0
0 0 0 0 0 0 0 0 0 0 0 0 0 0 0 0 0 0 0 0 0 0 0 0 0 0 0 0 0 0 0 0 0 0 0 0 0 0 0 0 0 0 0 0 0 0 0 0 0
0 0 0 0 0 0 0 0 0 0 0 0 0 0 0 0 0 0 0 0 0 0 0 0 0 0 0 0 0 0 0 0 0 0 0 0 0 0 0 0 0 0 0 0 0 0 0 0 0
0 0 0 0 0 0 0 0 0 0 0 0 0 0 0 0 0 0 0 0 0 0 0 0 0 0 0 0 0 0 0 0 0 0 0 0 0 0 0 0 0 0 0 0 0 0 0 0 0
0 0 0 0 0 0 0 0 0 0 0 0 0 0 0 0 0 0 0 0 0 0 0 0 0 0 0 0 0 0 0 0 0 0 0 0 0 0 0 0 0 0 0 0 0 0 0 0 0
0 0 0 0 0 0 0 0 0 0 0 0 0 0 0 0 0 0 0 0 0 0 0 0 0 0 0 0 0 0 0 0 0 0 0 0 0 0 0 0 0 0 0 0 0 0 0 0 0
0 0 0 0 0 0 0 0 0 0 0 0 0 0 0 0 0 0 0 0 0 0 0 0 0 0 0 0 0 0 0 0 0 0 0 0 0 0 0 0 0 0 0 0 0 0 0 0 0
0 0 0 0 0 0 0 0 0 0 0 0 0 0 0 0 0 0 0 0 0 0 0 0 0 0 0 0 0 0 0 0 0 0 0 0 0 0 0 0 0 0 0 0 0 0 0 0 0
Height
5849 5850 5851 5853 5855 5856 5856 5857 5857 5858 5859 5860 5860 5861 5861 5862 5863 5865 5864 5863 5863 5863 5863 5864 5864 5864 5864 5865 5865 5865 5865 5864 5864 5864 5863 5863 5862 5862 5861 5861 5860 5859 5859 5858 5857 5856 5855 5854 5853
5847 5848 5850 5851 5852 5853 5855 5855 5856 5857 5858 5858 5859 5859 5860 5860 5861 5861 5861 5861 5862 5862 5862 5862 5863 5863 5863 5863 5863 5863 5863 5863 5862 5862 5862 5861 5861 5860 5859 5859 5858 5857 5856 5855 5854 5853 5852 5850 5849
5845 5846 5848 5849 5850 5851 5852 5853 5854 5855 5856 5857 5858 5858 5859 5859 5860 5860 5860 5860 5861 5861 5861 5861 5861 5861 5861 5861 5861 5861 5861 5861 5861 5860 5860 5859 5858 5858 5857 5856 5855 5854 5853 5852 5851 5849 5848 5847 5846
5842 5844 5846 5847 5848 5849 5850 5851 5852 5853 5854 5855 5856 5857 5857 5858 5859 5858 5858 5859 5859 5859 5859 5860 5860 5860 5860 5860 5860 5859 5859 5859 5859 5858 5858 5857 5856 5856 5855 5854 5853 5851 5850 5849 5848 5846 5845 5844 5842
5839 5841 5843 5844 5845 5847 5847 5848 5850 5851 5852 5853 5854 5855 5856 5856 5856 5857 5857 5857 5858 5858 5858 5858 5858 5858 5858 5858 5858 5858 5857 5857 5856 5856 5855 5855 5854 5853 5852 5851 5850 5849 5847 5846 5845 5843 5842 5840 5839
5837 5838 5840 5841 5843 5844 5845 5846 5847 5849 5850 5851 5852 5853 5854 5854 5855 5855 5855 5855 5856 5857 5857 5856 5856 5856 5856 5856 5856 5855 5855 5855 5854 5854 5853 5852 5851 5851 5849 5848 5847 5846 5844 5843 5842 5840 5839 5837 5835
5834 5835 5836 5838 5839 5841 5843 5844 5845 5846 5847 5848 5849 5850 5851 5852 5853 5853 5853 5853 5854 5855 5855 5855 5855 5854 5854 5854 5854 5853 5853 5852 5852 5851 5850 5849 5849 5848 5846 5845 5844 5842 5841 5839 5838 5836 5835 5833 5831
5829 5831 5832 5834 5836 5838 5840 5841 5842 5843 5845 5846 5846 5848 5849 5850 5850 5851 5851 5851 5852 5853 5853 5853 5853 5852 5852 5852 5851 5851 5850 5850 5849 5848 5847 5846 5846 5844 5843 5842 5840 5839 5837 5836 5834 5832 5831 5829 5827
5824 5827 5829 5831 5833 5835 5836 5837 5839 5840 5841 5843 5843 5845 5846 5847 5848 5848 5849 5849 5850 5850 5851 5851 5851 5850 5850 5849 5849 5848 5848 5847 5846 5845 5844 5843 5842 5841 5840 5838 5837 5835 5834 5832 5830 5828 5827 5825 5823
5819 5822 5825 5827 5829 5830 5832 5834 5835 5836 5838 5839 5840 5842 5843 5844 5845 5846 5846 5847 5847 5848 5848 5848 5848 5848 5847 5847 5846 5845 5845 5844 5843 5842 5841 5840 5839 5838 5836 5835 5833 5832 5830 5828 5826 5824 5822 5820 5818
5813 5817 5820 5821 5824 5826 5827 5829 5831 5833 5834 5836 5837 5839 5839 5840 5842 5842 5843 5844 5844 5845 5845 5845 5845 5845 5844 5844 5843 5842 5842 5841 5840 5839 5838 5836 5835 5834 5833 5831 5829 5828 5826 5824 5822 5820 5818 5816 5814
5807 5810 5813 5816 5818 5820 5822 5825 5827 5829 5831 5832 5833 5834 5836 5837 5838 5839 5840 5840 5841 5841 5842 5842 5841 5841 5841 5840 5840 5839 5838 5837 5836 5835 5834 5833 5832 5830 5829 5827 5825 5824 5822 5820 5818 5816 5813 5811 5809
5800 5804 5806 5809 5812 5815 5817 5819 5822 5824 5826 5827 5829 5830 5832 5833 5834 5835 5836 5837 5837 5838 5838 5838 5838 5837 5837 5837 5836 5835 5835 5834 5833 5831 5830 5829 5828 5826 5825 5823 5821 5819 5817 5815 5813 5811 5809 5806 5804
5793 5796 5799 5802 5805 5808 5811 5814 5816 5820 5821 5822 5824 5826 5827 5828 5830 5831 5832 5832 5833 5834 5834 5834 5834 5834 5833 5833 5832 5831 5831 5830 5829 5827 5826 5825 5823 5822 5820 5818 5816 5814 5812 5810 5808 5806 5804 5801 5799
5784 5788 5791 5795 5799 5802 5804 5807 5811 5814 5815 5817 5819 5821 5822 5823 5825 5826 5827 5828 5828 5829 5829 5829 5829 5829 5829 5829 5828 5827 5826 5825 5824 5823 5822 5820 5818 5817 5815 5813 5811 5809 5807 5805 5803 5801 5798 5796 5793
5776 5779 5783 5789 5791 5794 5798 5802 5805 5807 5808 5811 5813 5815 5817 5818 5820 5821 5822 5823 5823 5824 5824 5824 5824 5824 5824 5824 5823 5823 5822 5821 5820 5818 5817 5815 5813 5812 5810 5808 5806 5804 5802 5800 5798 5795 5793 5790 5788
5767 5771 5775 5780 5783 5786 5789 5794 5798 5799 5802 5804 5807 5809 5811 5812 5814 5815 5816 5817 5818 5818 5819 5819 5819 5819 5819 5819 5818 5817 5817 5816 5814 5813 5812 5810 5808 5806 5805 5803 5801 5799 5797 5795 5792 5790 5787 5785 5782
5761 5764 5767 5771 5775 5778 5780 5786 5789 5791 5794 5797 5800 5802 5804 5806 5808 5809 5810 5811 5812 5813 5813 5814 5814 5814 5813 5813 5813 5812 5811 5810 5809 5808 5806 5805 5803 5801 5799 5797 5795 5793 5791 5789 5786 5784 5781 5778 5776
5753 5755 5758 5762 5765 5768 5771 5776 5780 5783 5786 5790 5792 5795 5797 5800 5801 5802 5804 5805 5806 5807 5807 5808 5808 5808 5807 5807 5807 5806 5806 5805 5803 5802 5800 5799 5797 5795 5794 5792 5790 5787 5785 5783 5780 5778 5775 5772 5769
5743 5746 5750 5754 5757 5759 5762 5767 5771 5774 5778 5782 5785 5787 5790 5793 5794 5796 5797 5798 5799 5800 5801 5801 5802 5801 5801 5801 5801 5800 5799 5798 5797 5796 5794 5793 5791 5789 5787 5786 5784 5781 5779 5776 5774 5771 5768 5765 5762
5734 5739 5743 5745 5748 5750 5753 5757 5762 5766 5769 5773 5777 5780 5782 5785 5787 5789 5790 5791 5793 5794 5794 5795 5795 5795 5795 5794 5794 5793 5792 5791 5791 5789 5788 5786 5785 5783 5781 5779 5777 5775 5773 5770 5767 5764 5762 5759 5755
5726 5731 5734 5736 5738 5741 5744 5746 5755 5758 5762 5765 5769 5772 5775 5777 5779 5781 5783 5784 5785 5787 5787 5787 5788 5788 5788 5787 5787 5786 5786 5785 5784 5783 5781 5779 5778 5776 5774 5772 5770 5768 5766 5763 5760 5757 5754 5751 5748
5718 5721 5724 5726 5728 5731 5734 5736 5745 5749 5753 5758 5761 5764 5767 5769 5771 5773 5775 5777 5778 5779 5779 5780 5780 5781 5781 5780 5780 5779 5779 5778 5776 5776 5774 5772 5771 5769 5767 5765 5763 5761 5758 5756 5753 5750 5747 5744 5740
5708 5711 5714 5716 5717 5720 5727 5727 5733 5741 5746 5750 5753 5755 5758 5761 5763 5764 5766 5768 5769 5770 5771 5772 5772 5773 5773 5773 5772 5772 5771 5770 5769 5768 5767 5765 5764 5762 5760 5758 5756 5753 5751 5748 5745 5742 5739 5735 5732
5698 5702 5704 5706 5707 5711 5718 5718 5724 5734 5738 5742 5745 5747 5749 5751 5754 5756 5758 5760 5761 5762 5763 5764 5764 5765 5765 5765 5764 5764 5763 5762 5761 5760 5759 5758 5756 5754 5752 5750 5748 5746 5743 5740 5737 5734 5731 5727 5723
5689 5693 5696 5699 5701 5705 5707 5709 5719 5725 5729 5732 5735 5737 5739 5742 5744 5747 5749 5750 5752 5753 5754 5755 5756 5756 5756 5757 5756 5756 5755 5754 5753 5752 5751 5750 5748 5746 5744 5742 5740 5737 5735 5732 5729 5726 5722 5718 5714
5679 5682 5688 5690 5691 5694 5696 5702 5709 5714 5718 5722 5725 5727 5730 5732 5735 5737 5739 5741 5743 5744 5745 5746 5747 5747 5748 5748 5748 5747 5746 5746 5745 5744 5743 5741 5740 5738 5736 5734 5732 5729 5726 5723 5720 5717 5713 5709 5705
5670 5674 5676 5677 5680 5683 5687 5693 5699 5704 5709 5713 5715 5717 5720 5722 5725 5727 5730 5731 5733 5735 5736 5737 5738 5738 5739 5739 5739 5738 5738 5737 5736 5735 5734 5733 5731 5729 5728 5725 5723 5720 5717 5714 5711 5708 5704 5700 5696
5660 5663 5665 5668 5670 5674 5678 5687 5692 5694 5698 5702 5705 5707 5709 5712 5715 5718 5720 5722 5723 5724 5726 5727 5728 5729 5729 5729 5729 5729 5729 5728 5727 5726 5725 5724 5722 5721 5719 5716 5714 5711 5708 5705 5701 5698 5694 5690 5686
5648 5652 5656 5658 5662 5665 5668 5678 5683 5685 5688 5691 5695 5698 5700 5702 5705 5707 5709 5711 5713 5714 5716 5717 5718 5719 5719 5720 5719 5719 5719 5718 5718 5717 5716 5714 5713 5711 5709 5707 5704 5701 5698 5695 5692 5688 5684 5680 5676
Wind_Speed
11 11 11 11 11 10 9 9 9 8 8 8 8 8 8 8 8 7 6 6 6 6 6 6 7 7 7 8 8 8 9 9 9 10 11 11 12 13 14 15 16 16 17 18 18 19 20 21 21
12 12 12 12 12 10 9 10 10 9 9 8 8 8 8 8 7 6 6 6 6 6 6 6 7 7 7 8 8 8 8 9 10 10 11 12 13 14 15 16 16 17 18 18 19 20 21 21 22
13 13 13 13 12 10 10 10 10 10 9 9 9 9 8 8 7 7 6 6 6 7 7 7 6 7 7 8 8 8 9 9 10 11 11 12 13 14 15 16 16 17 18 19 20 21 21 22 22
14 14 14 14 12 11 11 10 10 10 10 10 9 9 9 8 8 8 7 7 7 7 7 7 7 7 7 8 8 9 9 10 11 11 12 13 14 14 15 16 17 17 18 19 20 20 21 21 22
15 16 15 14 12 12 12 11 11 10 10 10 10 9 9 9 8 8 8 7 7 7 7 7 7 7 8 9 9 9 10 11 12 13 13 14 15 15 15 16 17 18 19 19 20 20 20 21 22
17 17 16 15 14 13 13 13 12 12 11 11 11 10 9 9 8 8 8 8 7 7 7 7 8 8 8 9 10 10 11 12 13 13 14 15 15 16 16 17 18 19 20 20 21 21 21 22 23
19 19 18 16 15 15 14 14 14 13 13 12 12 11 10 9 9 9 8 8 8 7 8 8 8 9 9 10 10 11 12 13 14 14 15 15 16 16 17 18 19 20 20 21 21 22 22 23 24
21 21 20 19 17 16 16 16 16 15 14 14 13 12 11 11 10 10 10 10 9 9 9 9 9 10 10 11 11 12 13 13 14 15 15 16 17 18 19 19 19 20 21 21 22 22 23 24 25
25 24 22 20 19 18 18 18 17 16 16 15 15 14 13 13 11 11 11 11 10 10 10 10 10 10 11 11 12 13 13 14 15 15 16 17 18 18 19 19 20 20 21 22 22 23 24 25 25
27 26 24 23 22 21 20 19 19 18 17 17 16 15 14 14 13 13 13 13 12 12 12 12 11 12 12 13 13 13 13 14 15 16 16 17 17 18 19 20 20 21 22 23 24 24 25 26 26
30 28 26 25 24 23 22 22 21 20 19 18 18 17 16 16 15 15 14 14 14 14 14 14 14 14 14 14 13 14 15 15 16 16 17 17 18 19 20 20 21 22 23 24 25 25 26 26 27
32 31 29 28 27 26 25 24 23 22 21 21 20 19 18 17 17 16 16 16 16 15 16 16 15 15 15 15 15 16 16 17 17 18 18 18 19 20 21 21 22 23 24 24 25 26 27 27 28
35 33 32 30 30 29 28 27 25 24 24 23 22 21 20 19 19 18 18 18 17 17 17 17 17 16 16 17 17 17 18 18 19 19 19 20 21 21 22 23 23 24 24 25 26 26 27 28 28
37 36 35 34 32 31 30 29 28 26 27 25 24 23 22 21 20 20 20 20 19 19 19 19 18 18 18 18 19 19 19 19 20 20 21 21 22 23 23 24 24 25 25 26 26 27 28 28 29
39 39 38 36 35 34 33 32 30 29 29 28 26 25 25 24 23 22 22 22 22 21 21 20 20 20 20 20 20 21 21 21 21 22 22 23 23 24 24 24 25 25 26 26 27 28 28 29 30
40 40 40 38 37 36 36 34 32 31 31 30 29 28 27 26 25 24 24 24 23 22 22 22 22 22 22 22 22 22 22 22 22 23 24 24 25 25 25 25 25 26 27 27 28 28 29 30 30
41 41 40 40 39 39 38 36 35 34 33 32 31 30 29 28 28 27 26 25 25 24 24 24 24 24 23 23 24 24 24 24 24 24 25 25 25 25 26 26 26 27 28 28 28 29 30 30 31
41 41 41 42 41 41 41 38 37 36 35 34 33 32 31 30 30 29 28 27 27 26 26 26 26 26 25 25 25 25 25 25 26 26 26 27 26 26 26 26 27 28 28 29 29 30 30 31 31
42 43 43 43 43 42 42 40 39 38 37 35 34 34 33 32 31 31 30 29 29 28 28 28 27 27 27 26 27 27 27 27 27 27 27 27 27 27 27 27 28 28 29 29 30 31 31 32 33
43 43 43 43 43 43 43 41 40 39 38 37 36 35 35 34 33 33 32 31 30 30 29 29 29 28 28 28 28 28 28 28 28 28 28 28 28 28 28 28 28 29 29 30 31 31 32 33 34
43 43 42 43 42 44 45 44 41 40 39 39 38 37 36 35 35 34 34 33 32 31 31 31 30 29 29 29 30 30 30 29 29 30 29 29 29 29 29 29 29 30 30 30 31 32 33 34 35
44 42 43 43 44 44 46 47 42 41 40 39 39 38 37 37 36 36 35 35 34 33 32 32 32 31 30 31 31 30 30 30 31 30 30 30 30 30 30 30 31 31 31 31 32 33 34 35 35
44 43 44 44 46 47 46 49 44 41 41 39 38 39 38 38 37 37 36 36 35 34 34 33 33 32 32 32 32 31 32 32 32 31 31 31 31 31 31 31 32 32 32 32 33 34 35 36 36
45 45 45 46 47 49 46 48 48 42 40 39 38 38 38 38 38 37 37 36 36 35 35 34 34 34 33 33 33 32 33 33 32 32 32 32 32 31 32 32 32 33 33 34 34 35 36 37 38
46 46 47 48 49 49 46 49 48 42 40 39 39 39 39 39 39 38 38 37 37 36 36 36 35 35 34 34 33 33 34 34 33 33 33 33 32 32 32 33 33 34 34 35 36 37 37 38 39
46 46 47 47 49 48 48 50 47 43 41 39 39 39 40 40 40 39 39 39 38 37 37 37 36 35 35 34 34 34 34 34 34 33 33 33 33 33 33 34 34 35 35 36 37 37 38 39 40
45 46 46 47 49 49 50 49 47 44 42 40 40 40 39 39 39 39 39 39 39 38 38 37 37 37 36 35 35 35 35 35 34 34 34 34 34 34 35 35 35 36 37 37 38 38 39 40 41
46 45 45 47 48 50 51 49 47 44 41 39 39 39 39 39 39 39 39 39 39 39 39 39 38 38 38 37 36 36 36 36 36 35 35 35 36 36 36 36 37 37 38 38 39 40 41 41 42
46 46 46 48 49 49 50 49 45 44 42 40 39 38 38 39 39 39 39 39 40 40 39 39 39 39 38 38 38 37 37 37 36 36 36 36 37 37 37 38 38 39 39 39 40 41 42 42 43
46 46 46 48 50 50 50 49 44 44 42 41 40 39 39 40 40 40 40 40 40 40 40 40 40 40 39 39 39 38 37 37 37 37 37 38 38 38 39 39 40 40 40 40 41 42 43 44 44
Wind_Direction
219 220 221 220 222 221 223 230 234 234 236 239 244 250 256 259 265 266 267 268 271 271 271 272 270 270 273 278 283 285 287 290 292 295 297 297 298 298 298 297 297 297 297 296 295 294 293 293 292
222 223 224 224 225 225 226 232 234 235 238 241 245 250 253 258 261 261 264 269 272 273 276 276 273 274 277 280 283 284 288 291 293 296 298 300 300 301 301 300 299 299 299 298 297 296 295 294 293
224 223 225 226 226 227 229 232 233 234 237 239 241 246 251 256 256 259 262 268 270 273 275 276 274 276 277 279 281 283 288 291 294 296 299 300 302 303 304 303 302 302 302 301 301 300 299 298 296
226 224 224 226 225 226 229 232 233 235 237 239 241 244 251 256 255 259 262 268 269 273 276 276 276 278 280 282 284 286 289 293 296 298 301 303 305 306 306 306 306 306 305 305 304 303 302 301 300
229 227 227 226 225 226 230 234 235 235 237 240 243 246 248 253 255 260 262 263 266 271 273 277 279 281 284 285 285 288 292 296 298 300 302 304 305 306 307 308 308 308 307 307 307 307 306 304 303
232 230 229 228 228 229 232 233 236 236 238 241 246 249 247 252 256 260 261 261 263 267 272 278 282 284 286 287 288 290 294 297 299 301 302 304 305 307 307 308 308 308 308 308 308 308 307 307 306
233 233 233 231 229 231 233 235 237 239 241 245 248 248 245 252 255 258 260 261 265 269 274 280 285 286 288 288 289 291 294 297 299 301 303 305 307 308 308 309 309 308 308 308 309 309 308 307 306
232 234 234 233 233 233 235 238 239 241 243 246 247 247 245 250 254 257 259 261 265 269 275 283 287 289 290 291 292 294 295 298 300 302 304 305 307 308 309 310 310 309 309 309 309 309 309 309 308
233 234 235 235 236 236 237 238 241 242 244 244 247 248 248 251 254 257 259 261 265 269 275 282 287 291 293 294 295 297 299 300 302 303 303 305 306 308 309 310 310 310 310 310 310 310 309 309 309
234 236 236 237 237 237 238 239 241 243 243 243 245 248 251 253 255 258 259 261 265 269 275 281 285 289 291 293 296 299 301 302 304 305 305 306 307 307 308 309 309 310 310 310 310 310 309 309 309
235 236 237 238 238 239 240 241 242 244 245 245 247 248 250 254 256 258 260 262 265 270 275 281 285 288 290 292 294 298 300 302 304 305 306 307 307 308 308 308 309 310 310 311 311 310 310 310 309
237 236 236 237 239 240 241 241 243 245 246 246 247 248 250 253 257 259 262 264 267 271 276 279 283 286 288 290 292 296 298 299 302 303 304 305 306 308 308 308 310 311 311 311 311 310 310 310 310
237 237 237 238 238 240 242 243 244 245 246 247 248 250 252 254 257 260 263 264 268 271 275 279 281 284 286 288 291 294 296 297 299 302 304 305 306 306 307 309 310 310 310 310 310 310 310 311 310
238 238 238 238 239 240 242 243 244 245 247 247 248 251 252 254 257 260 263 265 267 270 274 277 279 281 284 286 290 292 294 295 298 300 302 304 305 306 307 307 308 309 310 310 309 310 310 310 310
239 239 239 239 240 241 242 242 243 244 247 248 249 250 253 256 258 260 263 265 267 270 273 276 279 281 282 285 288 291 293 295 296 299 301 303 304 305 306 306 307 308 309 309 309 309 310 310 310
240 240 240 239 240 241 243 242 243 244 247 249 250 250 253 255 258 260 262 264 266 269 272 275 277 279 281 284 287 290 291 293 295 296 299 301 302 303 304 305 305 306 307 308 309 309 309 310 311
240 242 241 241 240 241 242 243 244 246 247 248 250 251 252 255 257 259 261 263 266 268 271 274 277 279 280 283 286 288 289 291 293 294 296 299 301 301 302 303 304 305 306 308 308 308 309 309 310
240 242 242 242 242 242 243 242 244 247 248 249 250 251 253 254 256 258 260 262 265 268 271 273 276 278 279 282 284 287 288 289 291 292 294 297 298 300 301 302 304 305 306 306 307 307 308 309 309
240 241 242 243 243 243 244 243 244 246 248 249 250 251 253 254 256 259 260 262 265 267 270 272 275 277 278 281 283 286 287 288 289 290 292 295 296 298 300 300 302 303 304 305 306 307 308 309 309
241 241 243 244 245 245 244 243 244 245 248 248 249 251 253 254 255 258 261 263 264 267 269 271 274 276 277 280 282 284 285 286 287 289 291 293 294 296 297 298 300 301 302 304 305 306 307 308 308
240 242 243 245 246 247 246 244 243 244 246 248 249 251 252 254 255 258 260 263 264 266 269 270 273 275 277 279 280 282 283 285 287 288 290 292 292 294 295 296 297 299 301 302 304 305 306 307 308
241 242 244 245 246 247 248 247 242 246 246 248 250 251 253 255 256 257 259 261 263 265 267 270 272 274 276 278 280 281 282 284 286 288 289 289 291 293 294 294 296 298 300 301 303 304 305 306 307
242 242 244 245 246 247 247 250 245 246 248 248 251 253 254 256 257 258 259 260 262 264 266 268 271 273 275 277 279 280 281 283 285 286 287 288 290 291 292 293 295 297 299 300 302 304 304 305 306
242 243 244 246 247 248 247 251 250 248 249 250 253 255 256 256 257 258 259 260 261 264 265 267 270 272 274 276 278 279 280 282 284 286 287 288 289 290 291 292 294 296 297 299 301 302 303 304 305
242 243 245 246 248 250 249 251 252 251 252 253 255 256 258 258 258 259 259 260 262 263 265 266 268 271 273 275 276 278 279 281 283 284 286 287 288 289 290 291 293 295 297 299 300 301 302 304 305
244 244 245 248 251 253 253 253 252 253 253 254 256 257 258 259 259 259 260 261 261 263 265 266 267 270 272 274 275 277 279 280 282 284 285 286 287 288 289 290 292 294 296 298 299 301 302 303 304
243 245 245 248 250 253 254 254 253 254 255 255 256 256 256 258 258 259 259 260 261 262 264 266 268 269 271 273 274 276 278 279 281 283 284 285 286 287 288 290 291 293 295 297 298 300 301 302 303
241 244 244 245 249 252 253 254 254 255 256 256 255 256 256 257 257 258 258 259 260 262 264 266 268 269 270 272 274 275 276 278 279 281 283 284 285 286 288 289 291 292 294 296 298 299 301 301 302
241 241 244 246 248 250 252 253 254 257 257 257 255 255 255 256 256 256 257 258 260 261 264 266 268 269 270 271 273 275 276 277 278 280 282 283 284 286 288 289 291 292 294 296 297 299 300 301 301
243 243 244 246 248 250 251 251 252 255 256 256 256 255 255 256 257 257 257 259 260 262 263 265 267 268 270 272 273 274 276 277 278 280 281 282 284 286 288 289 291 292 293 295 297 298 300 300 301